Weather Roundup
Issued by NWS Chicago, IL

Home | Current Version | Previous Version | Graphics & Text | Print | Product List | Glossary On
Versions: 1 2 3 4 5 6 7 8 9 10 11 12 13 14 15 16 17 18 19 20 21 22 23 24 25 26 27 28 29 30 31 32 33 34 35 36 37 38 39 40 41 42 43 44 45 46 47 48 49 50
000
NZUS59 KLOT 021508
HRRLOT

CHICAGO AREA WEATHER ROUNDUP
NATIONAL WEATHER SERVICE CHICAGO/ROMEOVILLE IL
900 AM CST FRI DEC 02 2016

NOTE: "FAIR" INDICATES FEW OR NO CLOUDS BELOW 12,000 FEET WITH NO
SIGNIFICANT WEATHER AND/OR OBSTRUCTIONS TO VISIBILITY.

* THESE STATIONS ARE NOT UNDER NWS QUALITY CONTROL. THEY ALSO MAY NOT
  REPORT WEATHER SUCH AS PRECIPITATION OR FOG.

ILZ005-006-012>014-019>023-021600-
NORTHEAST ILLINOIS

CITY           SKY/WX    TMP DP  RH WIND       PRES   REMARKS
OHARE          CLOUDY    38  31  76 W10       30.13R
MIDWAY         CLOUDY    39  31  72 W10       30.14R
AURORA         CLOUDY    38  34  85 W9        30.15R
LANSING*       CLOUDY    37  35  92 W8        30.16
JOLIET*        CLOUDY    39  36  89 W6        30.16S
WAUKEGAN       CLOUDY    36  30  79 NW5       30.12R
DUPAGE AIRPORT CLOUDY    37  31  78 W7        30.14R
WHEELING       CLOUDY    37  30  75 N7        30.14R
KANKAKEE*      CLOUDY    37  33  87 W12       30.18R
MORRIS*        CLOUDY    38  35  90 W9        30.16S
LEWIS AIRPORT* CLOUDY    37  36  97 W10       30.15S
$$

WIZ051-052-058>065-066-070>072-021600-
SOUTHEAST WISCONSIN

CITY           SKY/WX    TMP DP  RH WIND       PRES   REMARKS
MILWAUKEE      CLOUDY    35  23  61 NW13      30.12R WCI  26
KENOSHA*       CLOUDY    36  27  69 NW8       30.13R
RACINE*        CLOUDY    35  24  64 NW13      30.14R WCI  26
BURLINGTON     CLOUDY    34  27  76 NW10      30.13R WCI  26
WAUKESHA       CLOUDY    30  25  80 NW13      30.13R WCI  20
WEST BEND      CLOUDY    32  25  74 NW12      30.11R WCI  23
$$

INZ001>003-010>013-019-020-021600-
NORTHWEST INDIANA

CITY           SKY/WX    TMP DP  RH WIND       PRES   REMARKS
GARY*          CLOUDY    39  34  81 W8        30.15
MICHIGAN CITY* NOT AVBL
RENSSELAER*    NOT AVBL
VALPARAISO     CLOUDY    38  33  82 W8        30.14R
$$

LMZ740>746-021600-
SOUTHERN LAKE MICHIGAN

STATION/POSITION TIME  SKY/WX   TEMP WIND        PRES    VSBY
                                AIR  DIR/SP/G
                 (UTC)          (F)  (DEG/KT/KT) (MB)    (MI)
HARRISON CRIB    1440            40  280/ 15/ 17   N/A
BURNHAM HARBOR   NOT AVBL
CALUMET HARBOR   1442            38  230/  5/  9 1020.0R
BURNS HARBOR     1440            39  240/ 11/ 14 1021.0R
MICHIGAN CITY    1440            40  240/ 18/ 20   N/A
$$

ABBREVIATIONS USED IN REMARKS
   TC - TEMPERATURE IN CELSIUS
  WCI - WIND CHILL INDEX
   HX - HEAT INDEX
  VSB - VISIBILITY
$$




USA.gov is the U.S. government's official web portal to all federal, state and local government web resources and services.